| time (UTC) | temp F | wind direction | speed MPH | gust MPH | rain 1hr in | rain 24hr in | rain mn in | humidity % | barometer mb |
| 20260503001827 | 45 | 296 | 0.0 | 0.0 | 0.00 | 0.30 | 0.30 | 99 | 1011.4 |
| 20260503001323 | 45 | 286 | 0.0 | 0.0 | 0.00 | 0.30 | 0.30 | 99 | 1011.1 |
| 20260503000821 | 45 | 276 | 0.0 | 0.0 | 0.00 | 0.30 | 0.30 | 99 | 1011.0 |
| 20260503000319 | 45 | 303 | 0.0 | 0.0 | 0.00 | 0.30 | 0.30 | 99 | 1010.9 |
| 20260502235815 | 45 | 9 | 1.0 | 1.0 | 0.00 | 0.30 | 0.30 | 99 | 1011.0 |
| 20260502235313 | 45 | 282 | 1.0 | 1.0 | 0.00 | 0.30 | 0.30 | 99 | 1011.0 |
| 20260502234809 | 45 | 321 | 0.0 | 0.0 | 0.00 | 0.30 | 0.30 | 99 | 1010.9 |
| 20260502234306 | 45 | 330 | 0.0 | 0.0 | 0.07 | 0.30 | 0.30 | 99 | 1011.0 |
| 20260502233802 | 45 | 306 | 0.0 | 0.0 | 0.07 | 0.30 | 0.30 | 99 | 1011.2 |
| 20260502233259 | 45 | 343 | 0.0 | 1.0 | 0.07 | 0.30 | 0.30 | 99 | 1010.9 |
| 20260502232755 | 45 | 303 | 0.0 | 0.0 | 0.00 | 0.29 | 0.29 | 99 | 1010.9 |
| 20260502232252 | 45 | 307 | 0.0 | 0.0 | 0.00 | 0.29 | 0.29 | 99 | 1010.9 |
| 20260502231749 | 45 | 343 | 0.0 | 0.0 | 0.00 | 0.29 | 0.29 | 99 | 1010.9 |
| 20260502231246 | 45 | 308 | 0.0 | 0.0 | 0.00 | 0.29 | 0.29 | 99 | 1010.9 |
| 20260502230745 | 45 | 338 | 0.0 | 0.0 | 0.00 | 0.29 | 0.29 | 99 | 1011.0 |
| 20260502230243 | 46 | 301 | 0.0 | 0.0 | 0.00 | 0.29 | 0.29 | 99 | 1011.0 |
| 20260502225739 | 45 | 322 | 0.0 | 1.0 | 0.05 | 0.29 | 0.29 | 99 | 1010.9 |
| 20260502225236 | 46 | 42 | 0.0 | 0.0 | 0.05 | 0.29 | 0.29 | 99 | 1011.0 |
| 20260502224732 | 46 | 295 | 0.0 | 0.0 | 0.00 | 0.28 | 0.28 | 99 | 1010.8 |
| 20260502224229 | 46 | 70 | 1.0 | 1.0 | 0.00 | 0.28 | 0.28 | 99 | 1010.9 |
| 20260502223727 | 46 | 30 | 2.0 | 2.0 | 0.00 | 0.28 | 0.28 | 99 | 1010.6 |
| 20260502223224 | 46 | 354 | 1.0 | 1.0 | 0.00 | 0.28 | 0.28 | 99 | 1010.6 |
| 20260502222722 | 46 | 9 | 1.0 | 2.0 | 0.00 | 0.28 | 0.28 | 99 | 1010.6 |
| 20260502222218 | 46 | 334 | 1.0 | 1.0 | 0.00 | 0.28 | 0.28 | 99 | 1010.6 |
| 20260502221714 | 46 | 52 | 1.0 | 1.0 | 0.00 | 0.28 | 0.28 | 99 | 1010.6 |
| 20260502221211 | 46 | 331 | 0.0 | 0.0 | 0.00 | 0.28 | 0.28 | 99 | 1011.0 |
| 20260502220707 | 46 | 325 | 1.0 | 1.0 | 0.00 | 0.28 | 0.28 | 99 | 1010.9 |
| 20260502220204 | 46 | 334 | 1.0 | 1.0 | 0.07 | 0.28 | 0.28 | 99 | 1010.9 |
| 20260502215701 | 46 | 324 | 0.0 | 1.0 | 0.07 | 0.28 | 0.28 | 99 | 1010.8 |
| 20260502215157 | 46 | 326 | 0.0 | 0.0 | 0.00 | 0.27 | 0.27 | 99 | 1010.9 |
| 20260502214655 | 46 | 324 | 0.0 | 0.0 | 0.00 | 0.27 | 0.27 | 99 | 1011.1 |
| 20260502214152 | 46 | 349 | 0.0 | 1.0 | 0.00 | 0.27 | 0.27 | 99 | 1011.2 |
| 20260502213649 | 46 | 13 | 1.0 | 1.0 | 0.05 | 0.27 | 0.27 | 99 | 1011.1 |
| 20260502213146 | 47 | 337 | 1.0 | 1.0 | 0.05 | 0.27 | 0.27 | 99 | 1010.9 |
| 20260502212645 | 46 | 318 | 0.0 | 0.0 | 0.14 | 0.26 | 0.26 | 99 | 1011.0 |
| 20260502212143 | 46 | 347 | 1.0 | 2.0 | 0.19 | 0.26 | 0.26 | 99 | 1011.2 |
| 20260502211638 | 46 | 283 | 0.0 | 0.0 | 0.19 | 0.25 | 0.25 | 99 | 1011.2 |
| 20260502211136 | 46 | 291 | 0.0 | 0.0 | 0.12 | 0.23 | 0.23 | 99 | 1011.1 |
| 20260502210633 | 47 | 314 | 0.0 | 0.0 | 0.17 | 0.22 | 0.22 | 99 | 1011.3 |
| 20260502210130 | 47 | 278 | 0.0 | 0.0 | 0.19 | 0.21 | 0.21 | 99 | 1011.3 |
| 20260502205627 | 47 | 294 | 0.0 | 0.0 | 0.12 | 0.19 | 0.19 | 99 | 1011.2 |
| 20260502205123 | 47 | 300 | 0.0 | 0.0 | 0.12 | 0.18 | 0.18 | 99 | 1011.3 |
| 20260502204620 | 47 | 311 | 0.0 | 0.0 | 0.19 | 0.17 | 0.17 | 99 | 1011.1 |
| 20260502204118 | 47 | 282 | 0.0 | 0.0 | 0.12 | 0.16 | 0.16 | 99 | 1011.1 |
| 20260502203615 | 47 | 297 | 0.0 | 0.0 | 0.07 | 0.15 | 0.15 | 99 | 1011.1 |
| 20260502203113 | 47 | 281 | 0.0 | 0.0 | 0.00 | 0.14 | 0.14 | 99 | 1011.0 |
| 20260502202608 | 47 | 344 | 0.0 | 1.0 | 0.00 | 0.14 | 0.14 | 99 | 1011.0 |
| 20260502202106 | 47 | 313 | 1.0 | 1.0 | 0.00 | 0.14 | 0.14 | 99 | 1011.0 |
| 20260502201602 | 47 | 317 | 1.0 | 1.0 | 0.00 | 0.14 | 0.14 | 99 | 1011.1 |
| 20260502201059 | 47 | 22 | 1.0 | 2.0 | 0.07 | 0.14 | 0.14 | 99 | 1011.0 |
| 20260502200554 | 47 | 5 | 0.0 | 1.0 | 0.12 | 0.14 | 0.14 | 99 | 1010.9 |
| 20260502200052 | 47 | 334 | 0.0 | 0.0 | 0.12 | 0.13 | 0.13 | 99 | 1011.1 |
| 20260502195550 | 47 | 317 | 1.0 | 2.0 | 0.12 | 0.12 | 0.12 | 98 | 1011.2 |
| 20260502195046 | 47 | 21 | 1.0 | 1.0 | 0.05 | 0.11 | 0.11 | 98 | 1011.2 |
| 20260502194542 | 48 | 303 | 0.0 | 0.0 | 0.00 | 0.10 | 0.10 | 98 | 1011.2 |
| 20260502194039 | 48 | 9 | 0.0 | 1.0 | 0.00 | 0.10 | 0.10 | 97 | 1011.3 |
| 20260502193536 | 48 | 346 | 1.0 | 1.0 | 0.00 | 0.10 | 0.10 | 96 | 1011.2 |
| 20260502193033 | 48 | 319 | 1.0 | 1.0 | 0.00 | 0.10 | 0.10 | 96 | 1011.3 |
| 20260502192528 | 48 | 313 | 0.0 | 0.0 | 0.00 | 0.10 | 0.10 | 96 | 1011.4 |
| 20260502192026 | 48 | 25 | 2.0 | 2.0 | 0.00 | 0.10 | 0.10 | 96 | 1011.4 |
| 20260502191523 | 48 | 325 | 1.0 | 1.0 | 0.00 | 0.10 | 0.10 | 96 | 1011.3 |
| 20260502191021 | 48 | 349 | 0.0 | 0.0 | 0.00 | 0.10 | 0.10 | 96 | 1011.3 |
| 20260502190518 | 48 | 19 | 1.0 | 2.0 | 0.00 | 0.10 | 0.10 | 96 | 1011.5 |
| 20260502190014 | 48 | 273 | 0.0 | 0.0 | 0.07 | 0.10 | 0.10 | 96 | 1011.4 |
| 20260502185510 | 48 | 314 | 2.0 | 3.0 | 0.07 | 0.10 | 0.10 | 96 | 1011.6 |
| 20260502185007 | 48 | 14 | 2.0 | 2.0 | 0.00 | 0.09 | 0.09 | 95 | 1011.7 |
| 20260502184502 | 48 | 3 | 1.0 | 1.0 | 0.00 | 0.09 | 0.09 | 94 | 1011.9 |
| 20260502183959 | 49 | 312 | 0.0 | 0.0 | 0.00 | 0.09 | 0.09 | 94 | 1011.7 |
| 20260502183455 | 48 | 325 | 0.0 | 1.0 | 0.00 | 0.09 | 0.09 | 93 | 1011.7 |
| 20260502182950 | 49 | 32 | 2.0 | 3.0 | 0.00 | 0.09 | 0.09 | 92 | 1011.7 |
| 20260502182446 | 49 | 307 | 0.0 | 0.0 | 0.00 | 0.09 | 0.09 | 91 | 1011.8 |
| 20260502181942 | 49 | 290 | 1.0 | 1.0 | 0.00 | 0.09 | 0.09 | 91 | 1011.7 |
| 20260502181441 | 49 | 250 | 1.0 | 1.0 | 0.00 | 0.09 | 0.09 | 91 | 1011.9 |
| 20260502180939 | 49 | 328 | 1.0 | 1.0 | 0.00 | 0.09 | 0.09 | 92 | 1011.9 |
| 20260502180436 | 50 | 35 | 1.0 | 1.0 | 0.00 | 0.09 | 0.09 | 93 | 1011.9 |
| 20260502170349 | 47 | 351 | 0.0 | 1.0 | 0.00 | 0.09 | 0.09 | 97 | 1011.9 |
| 20260502164336 | 46 | 327 | 0.0 | 1.0 | 0.00 | 0.09 | 0.09 | 96 | 1012.1 |
| 20260502163832 | 46 | 9 | 3.0 | 3.0 | 0.00 | 0.09 | 0.09 | 96 | 1012.0 |
| 20260502163328 | 46 | 29 | 1.0 | 1.0 | 0.00 | 0.09 | 0.09 | 96 | 1012.1 |
| 20260502162826 | 46 | 312 | 0.0 | 0.0 | 0.00 | 0.09 | 0.09 | 96 | 1012.0 |
| 20260502162322 | 46 | 24 | 2.0 | 2.0 | 0.00 | 0.09 | 0.09 | 96 | 1012.1 |
| 20260502161820 | 46 | 27 | 2.0 | 2.0 | 0.00 | 0.09 | 0.09 | 96 | 1011.9 |
| 20260502161316 | 45 | 47 | 4.0 | 4.0 | 0.00 | 0.09 | 0.09 | 96 | 1012.0 |
| 20260502160814 | 46 | 6 | 1.0 | 2.0 | 0.00 | 0.09 | 0.09 | 96 | 1012.2 |
| 20260502160312 | 45 | 23 | 2.0 | 2.0 | 0.00 | 0.09 | 0.09 | 96 | 1012.0 |
| 20260502152235 | 46 | 83 | 4.0 | 6.0 | 0.00 | 0.09 | 0.09 | 95 | 1012.1 |
| 20260502151733 | 45 | 135 | 2.0 | 3.0 | 0.00 | 0.09 | 0.09 | 96 | 1012.4 |
| 20260502151230 | 46 | 142 | 2.0 | 2.0 | 0.00 | 0.09 | 0.09 | 94 | 1012.2 |
| 20260502150727 | 46 | 2 | 2.0 | 4.0 | 0.00 | 0.09 | 0.09 | 95 | 1012.1 |
| 20260502150218 | 45 | 58 | 2.0 | 3.0 | 0.00 | 0.09 | 0.09 | 95 | 1012.3 |
| 20260502130607 | 43 | 4 | 2.0 | 2.0 | 0.12 | 0.06 | 0.06 | 96 | 1013.3 |
| 20260502130105 | 43 | 18 | 1.0 | 1.0 | 0.05 | 0.05 | 0.05 | 95 | 1013.3 |
| 20260502123550 | 43 | 74 | 3.0 | 4.0 | 0.00 | 0.04 | 0.04 | 94 | 1013.0 |
| 20260502123046 | 43 | 319 | 2.0 | 2.0 | 0.00 | 0.04 | 0.04 | 94 | 1012.9 |
| 20260502122543 | 42 | 13 | 2.0 | 2.0 | 0.00 | 0.04 | 0.04 | 95 | 1013.1 |
| 20260502122040 | 42 | 21 | 2.0 | 2.0 | 0.07 | 0.04 | 0.04 | 95 | 1013.0 |
| 20260502121538 | 42 | 73 | 2.0 | 3.0 | 0.07 | 0.04 | 0.04 | 95 | 1013.1 |
| 20260502121035 | 42 | 25 | 2.0 | 2.0 | 0.12 | 0.04 | 0.04 | 96 | 1013.2 |
| 20260502120531 | 42 | 16 | 5.0 | 8.0 | 0.05 | 0.03 | 0.03 | 98 | 1013.3 |
| 20260502115526 | 42 | 298 | 0.0 | 0.0 | 0.14 | 0.02 | 0.02 | 98 | 1013.8 |
| 20260502115022 | 42 | 303 | 0.0 | 0.0 | 0.07 | 0.01 | 0.01 | 98 | 1013.6 |
| 20260502114519 | 42 | 283 | 0.0 | 0.0 | 0.00 | 0.00 | 0.00 | 97 | 1013.5 |
| 20260502114015 | 42 | 273 | 0.0 | 0.0 | 0.00 | 0.00 | 0.00 | 97 | 1013.7 |
| 20260502113513 | 42 | 334 | 0.0 | 0.0 | 0.00 | 0.00 | 0.00 | 97 | 1013.6 |
| 20260502113012 | 42 | 212 | 1.0 | 1.0 | 0.00 | 0.00 | 0.00 | 97 | 1013.7 |
| 20260502112509 | 42 | 347 | 1.0 | 2.0 | 0.00 | 0.00 | 0.00 | 96 | 1013.3 |
| 20260502112006 | 42 | 278 | 2.0 | 2.0 | 0.00 | 0.00 | 0.00 | 96 | 1013.4 |
| 20260502111504 | 41 | 250 | 0.0 | 1.0 | 0.00 | 0.00 | 0.00 | 97 | 1013.4 |
| 20260502111001 | 41 | 267 | 1.0 | 1.0 | 0.00 | 0.00 | 0.00 | 96 | 1013.4 |
| 20260502110458 | 41 | 18 | 1.0 | 2.0 | 0.00 | 0.00 | 0.00 | 97 | 1013.1 |
| 20260502105955 | 41 | 0 | 1.0 | 2.0 | 0.00 | 0.00 | 0.00 | 98 | 1013.3 |
| 20260502105453 | 41 | 279 | 0.0 | 1.0 | 0.00 | 0.00 | 0.00 | 98 | 1013.5 |
| 20260502104950 | 40 | 286 | 1.0 | 1.0 | 0.00 | 0.00 | 0.00 | 97 | 1013.2 |
| 20260502104447 | 40 | 327 | 0.0 | 0.0 | 0.00 | 0.00 | 0.00 | 97 | 1013.3 |
| 20260502103945 | 40 | 288 | 0.0 | 0.0 | 0.00 | 0.00 | 0.00 | 97 | 1013.2 |
| 20260502103442 | 40 | 251 | 0.0 | 1.0 | 0.00 | 0.00 | 0.00 | 97 | 1013.0 |
| 20260502102939 | 39 | 52 | 2.0 | 2.0 | 0.00 | 0.00 | 0.00 | 96 | 1012.8 |
| 20260502102436 | 39 | 314 | 0.0 | 0.0 | 0.00 | 0.00 | 0.00 | 96 | 1013.0 |
| 20260502101933 | 39 | 285 | 0.0 | 1.0 | 0.00 | 0.00 | 0.00 | 95 | 1012.7 |
| 20260502101431 | 39 | 285 | 0.0 | 0.0 | 0.00 | 0.00 | 0.00 | 95 | 1012.8 |
| 20260502100929 | 39 | 313 | 0.0 | 0.0 | 0.00 | 0.00 | 0.00 | 95 | 1012.6 |
| 20260502100428 | 39 | 235 | 0.0 | 1.0 | 0.00 | 0.00 | 0.00 | 95 | 1012.5 |
| 20260502091402 | 36 | 316 | 0.0 | 0.0 | 0.00 | 0.00 | 0.00 | 96 | 1012.3 |
| 20260502090859 | 36 | 308 | 0.0 | 0.0 | 0.00 | 0.00 | 0.00 | 96 | 1012.2 |
| 20260502090356 | 36 | 327 | 0.0 | 0.0 | 0.00 | 0.00 | 0.00 | 96 | 1012.2 |
| 20260502071251 | 36 | 300 | 0.0 | 0.0 | 0.00 | 0.00 | 0.00 | 95 | 1012.8 |
| 20260502070749 | 36 | 300 | 0.0 | 0.0 | 0.00 | 0.00 | 0.00 | 95 | 1012.7 |
| 20260502070247 | 36 | 300 | 0.0 | 0.0 | 0.00 | 0.00 | 0.00 | 95 | 1012.5 |
| 20260502065745 | 36 | 302 | 0.0 | 0.0 | 0.00 | 0.00 | 0.00 | 95 | 1012.6 |
| 20260502065243 | 35 | 303 | 0.0 | 0.0 | 0.00 | 0.00 | 0.00 | 95 | 1012.4 |
| 20260502064741 | 35 | 305 | 0.0 | 0.0 | 0.00 | 0.00 | 0.00 | 95 | 1012.4 |
| 20260502064238 | 35 | 288 | 0.0 | 0.0 | 0.00 | 0.00 | 0.00 | 95 | 1012.4 |
| 20260502063735 | 35 | 292 | 0.0 | 0.0 | 0.00 | 0.00 | 0.00 | 95 | 1012.3 |
| 20260502063233 | 34 | 299 | 0.0 | 0.0 | 0.00 | 0.00 | 0.00 | 95 | 1012.3 |
| 20260502062730 | 34 | 300 | 0.0 | 0.0 | 0.00 | 0.00 | 0.00 | 95 | 1012.2 |
| 20260502062228 | 34 | 306 | 0.0 | 0.0 | 0.00 | 0.00 | 0.00 | 96 | 1012.1 |
| 20260502061726 | 34 | 303 | 0.0 | 0.0 | 0.00 | 0.00 | 0.00 | 96 | 1012.2 |
| 20260502061224 | 33 | 288 | 0.0 | 0.0 | 0.00 | 0.00 | 0.00 | 96 | 1012.1 |
| 20260502060719 | 33 | 289 | 0.0 | 0.0 | 0.00 | 0.00 | 0.00 | 96 | 1012.1 |
| 20260502060215 | 33 | 300 | 0.0 | 0.0 | 0.00 | 0.00 | 0.00 | 96 | 1012.0 |
| 20260502055712 | 33 | 311 | 0.0 | 0.0 | 0.00 | 0.00 | 0.00 | 95 | 1012.0 |
| 20260502055210 | 33 | 302 | 0.0 | 0.0 | 0.00 | 0.00 | 0.00 | 96 | 1012.3 |
| 20260502054704 | 33 | 311 | 0.0 | 0.0 | 0.00 | 0.00 | 0.00 | 96 | 1012.1 |
| 20260502054201 | 32 | 306 | 0.0 | 0.0 | 0.00 | 0.00 | 0.00 | 96 | 1012.1 |
| 20260502053658 | 32 | 301 | 0.0 | 0.0 | 0.00 | 0.00 | 0.00 | 96 | 1012.2 |
| 20260502053155 | 32 | 291 | 0.0 | 0.0 | 0.00 | 0.00 | 0.00 | 95 | 1012.3 |
| 20260502052653 | 32 | 300 | 0.0 | 0.0 | 0.00 | 0.00 | 0.00 | 95 | 1012.2 |
| 20260502052151 | 32 | 308 | 0.0 | 0.0 | 0.00 | 0.00 | 0.00 | 95 | 1012.0 |
| 20260502051649 | 32 | 314 | 0.0 | 0.0 | 0.00 | 0.00 | 0.00 | 94 | 1011.9 |
| 20260502051147 | 32 | 299 | 0.0 | 0.0 | 0.00 | 0.00 | 0.00 | 94 | 1012.2 |
| 20260502050643 | 32 | 299 | 0.0 | 0.0 | 0.00 | 0.00 | 0.00 | 94 | 1012.1 |
| 20260502050140 | 32 | 301 | 0.0 | 0.0 | 0.00 | 0.00 | 0.00 | 93 | 1011.9 |
| 20260502045636 | 33 | 292 | 0.0 | 0.0 | 0.00 | 0.00 | 0.00 | 93 | 1012.0 |
| 20260502045134 | 33 | 296 | 0.0 | 0.0 | 0.00 | 0.00 | 0.00 | 93 | 1011.9 |
| 20260502044630 | 33 | 317 | 0.0 | 0.0 | 0.00 | 0.00 | 0.00 | 93 | 1012.1 |
| 20260502044126 | 33 | 303 | 0.0 | 0.0 | 0.00 | 0.00 | 0.00 | 93 | 1012.1 |
| 20260502043624 | 33 | 303 | 0.0 | 0.0 | 0.00 | 0.00 | 0.00 | 93 | 1011.9 |
| 20260502043121 | 33 | 303 | 0.0 | 0.0 | 0.00 | 0.00 | 0.00 | 92 | 1012.1 |
| 20260502042615 | 33 | 303 | 0.0 | 0.0 | 0.00 | 0.00 | 0.00 | 92 | 1012.0 |
| 20260502042113 | 33 | 305 | 0.0 | 0.0 | 0.00 | 0.00 | 0.00 | 92 | 1012.1 |
| 20260502041610 | 33 | 299 | 0.0 | 0.0 | 0.00 | 0.00 | 0.00 | 92 | 1011.9 |
| 20260502041107 | 34 | 302 | 0.0 | 0.0 | 0.00 | 0.00 | 0.00 | 91 | 1011.8 |
| 20260502040604 | 34 | 309 | 0.0 | 0.0 | 0.00 | 0.00 | 0.00 | 90 | 1011.9 |
| 20260502035556 | 35 | 302 | 0.0 | 0.0 | 0.00 | 0.00 | 0.00 | 90 | 1011.8 |
| 20260502035054 | 35 | 302 | 0.0 | 0.0 | 0.00 | 0.00 | 0.00 | 89 | 1011.8 |
| 20260502034552 | 35 | 306 | 0.0 | 0.0 | 0.00 | 0.00 | 0.00 | 89 | 1011.8 |
| 20260502034050 | 35 | 303 | 0.0 | 0.0 | 0.00 | 0.00 | 0.00 | 89 | 1011.9 |
| 20260502033548 | 35 | 306 | 0.0 | 0.0 | 0.00 | 0.00 | 0.00 | 89 | 1011.7 |
| 20260502033045 | 35 | 300 | 0.0 | 0.0 | 0.00 | 0.00 | 0.00 | 89 | 1011.9 |
| 20260502032541 | 35 | 296 | 0.0 | 0.0 | 0.00 | 0.00 | 0.00 | 89 | 1011.8 |
| 20260502032038 | 36 | 296 | 0.0 | 0.0 | 0.00 | 0.00 | 0.00 | 88 | 1011.7 |
| 20260502031536 | 36 | 296 | 0.0 | 0.0 | 0.00 | 0.00 | 0.00 | 87 | 1011.8 |
| 20260502031033 | 36 | 309 | 0.0 | 0.0 | 0.00 | 0.00 | 0.00 | 86 | 1011.7 |
| 20260502030532 | 36 | 297 | 0.0 | 0.0 | 0.00 | 0.00 | 0.00 | 86 | 1011.6 |
| 20260502030030 | 36 | 309 | 0.0 | 0.0 | 0.00 | 0.00 | 0.00 | 86 | 1011.8 |
| 20260502025527 | 37 | 309 | 0.0 | 0.0 | 0.00 | 0.00 | 0.00 | 85 | 1011.7 |
| 20260502025025 | 37 | 313 | 0.0 | 0.0 | 0.00 | 0.00 | 0.00 | 84 | 1011.6 |
| 20260502024521 | 37 | 313 | 0.0 | 0.0 | 0.00 | 0.00 | 0.00 | 84 | 1011.8 |
| 20260502024020 | 38 | 332 | 0.0 | 0.0 | 0.00 | 0.00 | 0.00 | 83 | 1011.7 |
| 20260502023517 | 38 | 308 | 0.0 | 0.0 | 0.00 | 0.00 | 0.00 | 83 | 1011.8 |
| 20260502023015 | 38 | 312 | 0.0 | 0.0 | 0.00 | 0.00 | 0.00 | 82 | 1011.8 |
| 20260502022511 | 38 | 309 | 0.0 | 0.0 | 0.00 | 0.00 | 0.00 | 81 | 1011.7 |
| 20260502022009 | 38 | 313 | 0.0 | 0.0 | 0.00 | 0.00 | 0.00 | 80 | 1011.7 |
| 20260502021506 | 39 | 313 | 0.0 | 0.0 | 0.00 | 0.00 | 0.00 | 79 | 1011.7 |
| 20260502021003 | 39 | 320 | 0.0 | 0.0 | 0.00 | 0.00 | 0.00 | 78 | 1011.9 |
| 20260502020500 | 39 | 309 | 0.0 | 0.0 | 0.00 | 0.00 | 0.00 | 79 | 1011.7 |
| 20260502015957 | 40 | 310 | 0.0 | 0.0 | 0.00 | 0.00 | 0.00 | 77 | 1011.7 |
| 20260502015455 | 40 | 310 | 0.0 | 0.0 | 0.00 | 0.00 | 0.00 | 76 | 1011.7 |
| 20260502014951 | 40 | 313 | 0.0 | 0.0 | 0.00 | 0.00 | 0.00 | 76 | 1011.6 |
| 20260502014448 | 40 | 312 | 0.0 | 0.0 | 0.00 | 0.00 | 0.00 | 75 | 1011.5 |
| 20260502013945 | 41 | 312 | 0.0 | 0.0 | 0.00 | 0.00 | 0.00 | 73 | 1011.6 |
| 20260502013440 | 41 | 314 | 0.0 | 0.0 | 0.00 | 0.00 | 0.00 | 73 | 1011.5 |
| 20260502012937 | 41 | 329 | 0.0 | 0.0 | 0.00 | 0.00 | 0.00 | 72 | 1011.5 |
| 20260502012435 | 42 | 321 | 0.0 | 0.0 | 0.00 | 0.00 | 0.00 | 74 | 1011.5 |
| 20260502011932 | 43 | 307 | 0.0 | 0.0 | 0.00 | 0.00 | 0.00 | 73 | 1011.4 |
| 20260502011428 | 43 | 309 | 0.0 | 0.0 | 0.00 | 0.00 | 0.00 | 71 | 1011.5 |
| 20260502010925 | 44 | 309 | 0.0 | 0.0 | 0.00 | 0.00 | 0.00 | 69 | 1011.3 |
| 20260502010421 | 45 | 282 | 0.0 | 0.0 | 0.00 | 0.00 | 0.00 | 69 | 1011.3 |
| 20260502005918 | 46 | 289 | 0.0 | 0.0 | 0.00 | 0.00 | 0.00 | 61 | 1011.1 |
| 20260502005416 | 47 | 301 | 0.0 | 0.0 | 0.00 | 0.00 | 0.00 | 57 | 1011.1 |
| 20260502004914 | 48 | 299 | 0.0 | 0.0 | 0.00 | 0.00 | 0.00 | 54 | 1010.9 |
| 20260502004409 | 48 | 315 | 0.0 | 0.0 | 0.00 | 0.00 | 0.00 | 53 | 1011.1 |
| 20260502003906 | 49 | 334 | 0.0 | 0.0 | 0.00 | 0.00 | 0.00 | 49 | 1011.0 |
| 20260502003403 | 49 | 309 | 0.0 | 0.0 | 0.00 | 0.00 | 0.00 | 49 | 1010.9 |
| 20260502002854 | 49 | 324 | 0.0 | 0.0 | 0.00 | 0.00 | 0.00 | 51 | 1010.9 |
| 20260502002352 | 49 | 302 | 0.0 | 0.0 | 0.00 | 0.00 | 0.00 | 49 | 1011.0 |